Station Historical Data
Daily Summary for September 27, 2017 Units:  English    Metric   Both
« Previous Day
Next Day »
Daily Weekly Monthly Yearly Custom
  High: Low: Average:
Temperature: 83.2 °F 61.8 °F 71.9 °F
Dew Point: 71.5 °F 50.8 °F 62.8 °F
Humidity: 89% 56% 74%
Wind Speed: 14.0mph 0.0mph 3.2mph
Wind Gust: 20.0mph - -
Wind- - West
Pressure: 29.95 in 29.80 in -
Precipitation: 0.00 in    
Historical Graphs
 
 
Tabular Data for September 27, 2017
Time Temperature Dew Point Pressure Wind Wind Speed Wind Gust Humidity Rainfall Rate (Hourly)
00:04 69.3 °F 62.5 °F 29.91 in Calm   1.0 mph 79% 0.00 in
00:09 69.4 °F 62.2 °F 29.91 in Calm   2.0 mph 78% 0.00 in
00:14 69.6 °F 62.4 °F 29.91 in Calm     78% 0.00 in
00:19 69.7 °F 62.5 °F 29.91 in Calm     78% 0.00 in
00:24 69.5 °F 62.3 °F 29.91 in Calm     78% 0.00 in
00:29 69.5 °F 62.3 °F 29.91 in Calm     78% 0.00 in
00:34 69.4 °F 62.2 °F 29.91 in Calm     78% 0.00 in
00:39 69.2 °F 62.4 °F 29.91 in Calm     79% 0.00 in
00:44 69.1 °F 62.3 °F 29.91 in Calm     79% 0.00 in
00:49 69.0 °F 62.2 °F 29.91 in Calm     79% 0.00 in
00:54 68.8 °F 62.0 °F 29.91 in Calm     79% 0.00 in
00:59 68.4 °F 61.6 °F 29.91 in Calm     79% 0.00 in
01:04 68.1 °F 61.7 °F 29.90 in Calm     80% 0.00 in
01:09 67.7 °F 61.7 °F 29.90 in Calm     81% 0.00 in
01:14 67.6 °F 61.6 °F 29.90 in Calm     81% 0.00 in
01:19 67.5 °F 61.8 °F 29.91 in Calm     82% 0.00 in
01:24 67.4 °F 61.7 °F 29.91 in Calm     82% 0.00 in
01:29 67.3 °F 61.6 °F 29.90 in Calm     82% 0.00 in
01:34 67.1 °F 61.4 °F 29.90 in Calm     82% 0.00 in
01:39 67.0 °F 61.7 °F 29.90 in Calm     83% 0.00 in
01:44 67.0 °F 61.7 °F 29.90 in Calm     83% 0.00 in
01:49 67.1 °F 61.8 °F 29.90 in Calm     83% 0.00 in
01:54 67.1 °F 61.8 °F 29.90 in Calm     83% 0.00 in
01:59 67.1 °F 61.8 °F 29.90 in Calm     83% 0.00 in
02:04 67.1 °F 61.4 °F 29.90 in Calm     82% 0.00 in
02:09 67.0 °F 61.7 °F 29.90 in Calm     83% 0.00 in
02:14 66.8 °F 61.5 °F 29.91 in Calm     83% 0.00 in
02:19 66.8 °F 61.5 °F 29.90 in Calm     83% 0.00 in
02:24 66.7 °F 61.4 °F 29.90 in Calm     83% 0.00 in
02:29 66.8 °F 61.5 °F 29.90 in Calm     83% 0.00 in
02:34 66.7 °F 61.4 °F 29.90 in Calm     83% 0.00 in
02:39 66.6 °F 61.3 °F 29.90 in Calm     83% 0.00 in
02:44 66.5 °F 61.5 °F 29.90 in Calm     84% 0.00 in
02:49 66.5 °F 61.5 °F 29.90 in Calm     84% 0.00 in
02:54 66.5 °F 61.5 °F 29.89 in Calm     84% 0.00 in
02:59 66.5 °F 61.5 °F 29.89 in Calm     84% 0.00 in
03:04 66.3 °F 61.3 °F 29.89 in Calm     84% 0.00 in
03:09 66.1 °F 61.1 °F 29.89 in Calm     84% 0.00 in
03:14 65.9 °F 60.9 °F 29.89 in Calm     84% 0.00 in
03:19 65.8 °F 60.8 °F 29.89 in Calm     84% 0.00 in
03:24 65.6 °F 61.0 °F 29.89 in Calm     85% 0.00 in
03:29 65.6 °F 61.0 °F 29.89 in Calm     85% 0.00 in
03:34 65.5 °F 60.9 °F 29.89 in Calm     85% 0.00 in
03:39 65.3 °F 61.0 °F 29.89 in Calm     86% 0.00 in
03:44 65.2 °F 60.9 °F 29.89 in Calm     86% 0.00 in
03:49 65.2 °F 60.9 °F 29.88 in Calm     86% 0.00 in
03:54 65.3 °F 61.0 °F 29.88 in Calm     86% 0.00 in
03:59 65.5 °F 61.2 °F 29.88 in Calm     86% 0.00 in
04:04 65.5 °F 61.2 °F 29.88 in Calm     86% 0.00 in
04:09 65.5 °F 61.2 °F 29.88 in Calm     86% 0.00 in
04:14 65.5 °F 61.2 °F 29.88 in Calm     86% 0.00 in
04:19 65.5 °F 60.9 °F 29.88 in Calm     85% 0.00 in
04:24 65.4 °F 60.8 °F 29.88 in Calm     85% 0.00 in
04:29 65.2 °F 60.6 °F 29.88 in Calm     85% 0.00 in
04:34 65.1 °F 60.5 °F 29.88 in Calm     85% 0.00 in
04:39 64.8 °F 60.2 °F 29.88 in Calm     85% 0.00 in
04:44 64.7 °F 60.4 °F 29.88 in Calm     86% 0.00 in
04:49 64.8 °F 60.5 °F 29.88 in Calm     86% 0.00 in
04:54 64.7 °F 60.4 °F 29.87 in Calm     86% 0.00 in
04:59 64.6 °F 60.3 °F 29.87 in Calm     86% 0.00 in
05:04 64.5 °F 60.2 °F 29.87 in Calm     86% 0.00 in
05:09 64.5 °F 60.2 °F 29.87 in Calm     86% 0.00 in
05:14 64.4 °F 60.1 °F 29.87 in Calm     86% 0.00 in
05:19 64.2 °F 59.9 °F 29.87 in Calm     86% 0.00 in
05:24 64.1 °F 60.2 °F 29.87 in Calm     87% 0.00 in
05:29 64.0 °F 60.1 °F 29.87 in Calm     87% 0.00 in
05:34 64.0 °F 60.1 °F 29.87 in Calm     87% 0.00 in
05:39 63.9 °F 60.0 °F 29.87 in Calm     87% 0.00 in
05:44 63.8 °F 59.9 °F 29.87 in Calm     87% 0.00 in
05:49 63.7 °F 59.8 °F 29.87 in Calm     87% 0.00 in
05:54 63.7 °F 60.1 °F 29.87 in Calm     88% 0.00 in
05:59 63.6 °F 59.7 °F 29.88 in Calm     87% 0.00 in
06:04 63.5 °F 59.9 °F 29.87 in Calm     88% 0.00 in
06:09 63.5 °F 59.9 °F 29.87 in Calm     88% 0.00 in
06:14 63.6 °F 60.0 °F 29.87 in Calm     88% 0.00 in
06:19 63.7 °F 60.1 °F 29.87 in Calm     88% 0.00 in
06:24 63.6 °F 60.0 °F 29.87 in Calm     88% 0.00 in
06:29 63.7 °F 60.1 °F 29.87 in Calm     88% 0.00 in
06:34 63.6 °F 60.0 °F 29.87 in Calm     88% 0.00 in
06:39 63.6 °F 60.0 °F 29.87 in Calm     88% 0.00 in
06:44 63.7 °F 60.1 °F 29.87 in Calm     88% 0.00 in
06:49 63.7 °F 60.1 °F 29.87 in Calm     88% 0.00 in
06:54 63.8 °F 60.2 °F 29.87 in Calm     88% 0.00 in
06:59 63.7 °F 60.1 °F 29.87 in Calm     88% 0.00 in
07:04 63.7 °F 60.1 °F 29.87 in Calm     88% 0.00 in
07:09 63.7 °F 60.1 °F 29.88 in Calm     88% 0.00 in
07:14 63.7 °F 60.1 °F 29.88 in Calm     88% 0.00 in
07:19 63.9 °F 60.3 °F 29.88 in Calm     88% 0.00 in
07:24 64.0 °F 60.4 °F 29.88 in Calm     88% 0.00 in
07:29 64.3 °F 61.0 °F 29.87 in Calm     89% 0.00 in
07:34 64.6 °F 61.3 °F 29.87 in Calm     89% 0.00 in
07:39 65.0 °F 61.4 °F 29.87 in Calm     88% 0.00 in
07:44 65.5 °F 61.9 °F 29.87 in Calm     88% 0.00 in
07:49 66.0 °F 62.3 °F 29.88 in Calm   3.0 mph 88% 0.00 in
07:54 66.5 °F 62.8 °F 29.88 in Calm   3.0 mph 88% 0.00 in
07:59 66.9 °F 62.9 °F 29.87 in Calm   2.0 mph 87% 0.00 in
08:04 67.3 °F 63.0 °F 29.87 in Calm     86% 0.00 in
08:09 67.8 °F 63.5 °F 29.88 in Calm   3.0 mph 86% 0.00 in
08:14 68.4 °F 63.7 °F 29.87 in Calm     85% 0.00 in
08:19 69.0 °F 64.0 °F 29.87 in Calm   3.0 mph 84% 0.00 in
08:24 69.7 °F 64.3 °F 29.87 in Calm     83% 0.00 in
08:29 70.6 °F 64.8 °F 29.87 in Calm     82% 0.00 in
08:34 71.4 °F 64.9 °F 29.87 in SW 2.0 mph 3.0 mph 80% 0.00 in
08:39 72.1 °F 64.9 °F 29.87 in SW 1.0 mph 4.0 mph 78% 0.00 in
08:44 72.8 °F 65.5 °F 29.87 in SW 1.0 mph 4.0 mph 78% 0.00 in
08:49 73.5 °F 65.5 °F 29.87 in SW 1.0 mph 4.0 mph 76% 0.00 in
08:54 74.2 °F 65.8 °F 29.87 in SW 2.0 mph 5.0 mph 75% 0.00 in
08:59 74.7 °F 65.9 °F 29.87 in SW 2.0 mph 6.0 mph 74% 0.00 in
09:04 75.4 °F 66.1 °F 29.87 in WSW 3.0 mph 7.0 mph 73% 0.00 in
09:09 75.9 °F 66.2 °F 29.87 in SW 3.0 mph 7.0 mph 72% 0.00 in
09:14 76.4 °F 66.3 °F 29.87 in SW 1.0 mph 6.0 mph 71% 0.00 in
09:19 77.0 °F 66.5 °F 29.87 in SW 4.0 mph 7.0 mph 70% 0.00 in
09:24 77.4 °F 66.0 °F 29.87 in SSW 5.0 mph 10.0 mph 68% 0.00 in
09:29 78.0 °F 66.6 °F 29.87 in WSW 3.0 mph 6.0 mph 68% 0.00 in
09:34 78.5 °F 66.6 °F 29.86 in WSW 4.0 mph 8.0 mph 67% 0.00 in
09:39 78.7 °F 65.9 °F 29.86 in SW 4.0 mph 10.0 mph 65% 0.00 in
09:44 78.8 °F 66.0 °F 29.87 in SW 5.0 mph 10.0 mph 65% 0.00 in
09:49 79.1 °F 66.3 °F 29.87 in SW 5.0 mph 11.0 mph 65% 0.00 in
09:54 79.3 °F 66.1 °F 29.86 in SW 5.0 mph 11.0 mph 64% 0.00 in
09:59 79.3 °F 66.1 °F 29.86 in WSW 8.0 mph 12.0 mph 64% 0.00 in
10:04 79.7 °F 66.4 °F 29.86 in WNW 4.0 mph 9.0 mph 64% 0.00 in
10:09 79.8 °F 66.1 °F 29.86 in WSW 5.0 mph 9.0 mph 63% 0.00 in
10:14 79.8 °F 66.1 °F 29.86 in WSW 5.0 mph 9.0 mph 63% 0.00 in
10:19 80.1 °F 65.9 °F 29.86 in WSW 6.0 mph 10.0 mph 62% 0.00 in
10:24 80.2 °F 66.5 °F 29.86 in WSW 7.0 mph 10.0 mph 63% 0.00 in
10:29 80.3 °F 66.1 °F 29.86 in SW 7.0 mph 14.0 mph 62% 0.00 in
10:34 80.3 °F 66.6 °F 29.85 in WSW 10.0 mph 10.0 mph 63% 0.00 in
10:39 80.7 °F 66.9 °F 29.85 in WSW 6.0 mph 10.0 mph 63% 0.00 in
10:44 80.7 °F 66.0 °F 29.85 in WSW 6.0 mph 12.0 mph 61% 0.00 in
10:49 81.1 °F 67.3 °F 29.85 in West 3.0 mph 11.0 mph 63% 0.00 in
10:54 81.2 °F 66.5 °F 29.85 in West 8.0 mph 12.0 mph 61% 0.00 in
10:59 81.0 °F 65.8 °F 29.85 in West 7.0 mph 11.0 mph 60% 0.00 in
11:04 81.3 °F 66.6 °F 29.85 in SW 7.0 mph 14.0 mph 61% 0.00 in
11:09 81.2 °F 66.0 °F 29.85 in WSW 7.0 mph 15.0 mph 60% 0.00 in
11:14 81.2 °F 65.5 °F 29.85 in WSW 8.0 mph 15.0 mph 59% 0.00 in
11:19 81.4 °F 66.2 °F 29.85 in WSW 7.0 mph 15.0 mph 60% 0.00 in
11:24 82.0 °F 66.3 °F 29.85 in WSW 6.0 mph 15.0 mph 59% 0.00 in
11:29 82.0 °F 65.8 °F 29.85 in WSW 6.0 mph 13.0 mph 58% 0.00 in
11:34 82.0 °F 65.3 °F 29.85 in WSW 7.0 mph 13.0 mph 57% 0.00 in
11:39 82.1 °F 65.4 °F 29.85 in WSW 10.0 mph 14.0 mph 57% 0.00 in
11:44 82.1 °F 64.8 °F 29.85 in NW 12.0 mph 14.0 mph 56% 0.00 in
11:49 82.0 °F 65.3 °F 29.85 in WSW 7.0 mph 16.0 mph 57% 0.00 in
11:54 82.1 °F 65.4 °F 29.85 in WSW 8.0 mph 15.0 mph 57% 0.00 in
11:59 82.7 °F 65.9 °F 29.85 in SSE 5.0 mph 13.0 mph 57% 0.00 in
12:04 82.5 °F 65.7 °F 29.85 in SW 4.0 mph 13.0 mph 57% 0.00 in
12:09 82.3 °F 66.5 °F 29.85 in WSW 8.0 mph 19.0 mph 59% 0.00 in
12:14 82.3 °F 66.5 °F 29.84 in WSW 7.0 mph 19.0 mph 59% 0.00 in
12:19 82.3 °F 66.0 °F 29.84 in WSW 7.0 mph 12.0 mph 58% 0.00 in
12:24 82.1 °F 66.8 °F 29.84 in WSW 6.0 mph 12.0 mph 60% 0.00 in
12:29 82.0 °F 66.7 °F 29.84 in WSW 6.0 mph 12.0 mph 60% 0.00 in
12:34 82.3 °F 66.5 °F 29.84 in WSW 4.0 mph 11.0 mph 59% 0.00 in
12:39 82.2 °F 66.9 °F 29.84 in West 4.0 mph 14.0 mph 60% 0.00 in
12:44 82.3 °F 67.5 °F 29.84 in West 4.0 mph 15.0 mph 61% 0.00 in
12:49 83.2 °F 68.3 °F 29.84 in WSW 10.0 mph 10.0 mph 61% 0.00 in
12:54 82.9 °F 67.6 °F 29.84 in WNW 7.0 mph 14.0 mph 60% 0.00 in
12:59 83.0 °F 68.2 °F 29.84 in WSW 4.0 mph 11.0 mph 61% 0.00 in
13:04 82.7 °F 67.4 °F 29.84 in WSW 6.0 mph 13.0 mph 60% 0.00 in
13:09 82.2 °F 66.9 °F 29.84 in WSW 7.0 mph 13.0 mph 60% 0.00 in
13:14 82.2 °F 67.4 °F 29.84 in WSW 7.0 mph 12.0 mph 61% 0.00 in
13:19 82.6 °F 67.8 °F 29.83 in SW 6.0 mph 14.0 mph 61% 0.00 in
13:24 82.6 °F 67.8 °F 29.83 in WSW 10.0 mph 12.0 mph 61% 0.00 in
13:29 82.6 °F 67.8 °F 29.83 in WSW 12.0 mph 17.0 mph 61% 0.00 in
13:34 82.2 °F 67.4 °F 29.83 in SW 7.0 mph 17.0 mph 61% 0.00 in
13:39 82.3 °F 68.0 °F 29.82 in SSW 6.0 mph 14.0 mph 62% 0.00 in
13:44 82.5 °F 67.7 °F 29.82 in West 7.0 mph 17.0 mph 61% 0.00 in
13:49 82.3 °F 68.0 °F 29.82 in SSW 3.0 mph 13.0 mph 62% 0.00 in
13:54 82.1 °F 67.8 °F 29.82 in SSW 3.0 mph 16.0 mph 62% 0.00 in
13:59 82.3 °F 68.0 °F 29.82 in SW 7.0 mph 14.0 mph 62% 0.00 in
14:04 82.2 °F 67.9 °F 29.82 in SW 8.0 mph 16.0 mph 62% 0.00 in
14:09 82.5 °F 68.6 °F 29.82 in WSW 8.0 mph 16.0 mph 63% 0.00 in
14:14 82.2 °F 68.3 °F 29.82 in WSW 12.0 mph 14.0 mph 63% 0.00 in
14:19 82.0 °F 68.2 °F 29.82 in West 7.0 mph 16.0 mph 63% 0.00 in
14:24 81.9 °F 68.5 °F 29.82 in SW 14.0 mph 14.0 mph 64% 0.00 in
14:29 82.2 °F 68.3 °F 29.82 in WSW 8.0 mph 14.0 mph 63% 0.00 in
14:34 81.9 °F 68.5 °F 29.82 in WSW 8.0 mph 17.0 mph 64% 0.00 in
14:39 81.8 °F 68.9 °F 29.82 in NW 7.0 mph 15.0 mph 65% 0.00 in
14:44 81.3 °F 68.9 °F 29.82 in SSW 7.0 mph 20.0 mph 66% 0.00 in
14:49 80.9 °F 69.3 °F 29.82 in WSW 9.0 mph 20.0 mph 68% 0.00 in
14:54 81.2 °F 69.2 °F 29.82 in WSW 8.0 mph 15.0 mph 67% 0.00 in
14:59 81.1 °F 69.5 °F 29.82 in South 7.0 mph 15.0 mph 68% 0.00 in
15:04 81.1 °F 70.0 °F 29.82 in WSW 8.0 mph 15.0 mph 69% 0.00 in
15:09 81.0 °F 69.9 °F 29.82 in West 3.0 mph 16.0 mph 69% 0.00 in
15:14 80.9 °F 70.2 °F 29.81 in WNW 7.0 mph 15.0 mph 70% 0.00 in
15:19 81.1 °F 70.4 °F 29.81 in West 6.0 mph 12.0 mph 70% 0.00 in
15:24 81.0 °F 70.7 °F 29.81 in WSW 7.0 mph 15.0 mph 71% 0.00 in
15:29 80.8 °F 70.9 °F 29.81 in WNW 6.0 mph 16.0 mph 72% 0.00 in
15:34 80.9 °F 70.6 °F 29.81 in WSW 7.0 mph 16.0 mph 71% 0.00 in
15:39 80.9 °F 70.6 °F 29.81 in WSW 7.0 mph 17.0 mph 71% 0.00 in
15:44 80.9 °F 71.0 °F 29.81 in SW 8.0 mph 17.0 mph 72% 0.00 in
15:49 80.3 °F 70.4 °F 29.81 in SW 8.0 mph 17.0 mph 72% 0.00 in
15:54 80.1 °F 70.7 °F 29.82 in WSW 4.0 mph 12.0 mph 73% 0.00 in
15:59 80.6 °F 71.5 °F 29.82 in SW 4.0 mph 12.0 mph 74% 0.00 in
16:04 81.3 °F 71.0 °F 29.82 in WSW 6.0 mph 13.0 mph 71% 0.00 in
16:09 81.3 °F 71.0 °F 29.81 in WSW 5.0 mph 13.0 mph 71% 0.00 in
16:14 80.4 °F 70.9 °F 29.81 in SW 7.0 mph 11.0 mph 73% 0.00 in
16:19 79.4 °F 70.8 °F 29.81 in NW 1.0 mph 11.0 mph 75% 0.00 in
16:24 79.3 °F 71.1 °F 29.81 in SW 2.0 mph 12.0 mph 76% 0.00 in
16:29 79.7 °F 71.1 °F 29.81 in WSW 6.0 mph 12.0 mph 75% 0.00 in
16:34 80.0 °F 71.0 °F 29.80 in WSW 5.0 mph 12.0 mph 74% 0.00 in
16:39 79.6 °F 71.0 °F 29.81 in WSW 6.0 mph 10.0 mph 75% 0.00 in
16:44 79.6 °F 71.0 °F 29.81 in WSW 6.0 mph 12.0 mph 75% 0.00 in
16:49 79.4 °F 70.8 °F 29.81 in WSW 9.0 mph 10.0 mph 75% 0.00 in
16:54 78.4 °F 70.2 °F 29.81 in West 6.0 mph 11.0 mph 76% 0.00 in
16:59 77.5 °F 70.5 °F 29.82 in NW 8.0 mph 14.0 mph 79% 0.00 in
17:04 77.2 °F 70.5 °F 29.82 in West 6.0 mph 14.0 mph 80% 0.00 in
17:09 77.0 °F 70.7 °F 29.82 in West 4.0 mph 9.0 mph 81% 0.00 in
17:14 77.1 °F 70.8 °F 29.82 in West 3.0 mph 7.0 mph 81% 0.00 in
17:19 77.1 °F 69.3 °F 29.82 in Calm   5.0 mph 77% 0.00 in
17:24 77.3 °F 68.8 °F 29.82 in NW 2.0 mph 6.0 mph 75% 0.00 in
17:29 77.1 °F 67.8 °F 29.82 in NW 3.0 mph 9.0 mph 73% 0.00 in
17:34 76.8 °F 67.5 °F 29.83 in NW 5.0 mph 10.0 mph 73% 0.00 in
17:39 76.1 °F 66.4 °F 29.83 in NNW 5.0 mph 10.0 mph 72% 0.00 in
17:44 75.7 °F 66.4 °F 29.83 in NNW 5.0 mph 10.0 mph 73% 0.00 in
17:49 75.6 °F 66.3 °F 29.83 in NNW 5.0 mph 10.0 mph 73% 0.00 in
17:54 75.3 °F 66.4 °F 29.84 in NNW 5.0 mph 10.0 mph 74% 0.00 in
17:59 75.1 °F 66.2 °F 29.83 in NNW 4.0 mph 11.0 mph 74% 0.00 in
18:04 74.9 °F 66.1 °F 29.84 in NNW 4.0 mph 11.0 mph 74% 0.00 in
18:09 74.8 °F 66.0 °F 29.84 in North 2.0 mph 8.0 mph 74% 0.00 in
18:14 74.5 °F 65.7 °F 29.84 in NW 7.0 mph 11.0 mph 74% 0.00 in
18:19 74.1 °F 64.9 °F 29.84 in NW 5.0 mph 11.0 mph 73% 0.00 in
18:24 73.9 °F 65.1 °F 29.85 in WNW 6.0 mph 11.0 mph 74% 0.00 in
18:29 73.6 °F 65.2 °F 29.85 in NW 3.0 mph 12.0 mph 75% 0.00 in
18:34 73.3 °F 64.5 °F 29.85 in NNW 4.0 mph 12.0 mph 74% 0.00 in
18:39 73.1 °F 64.3 °F 29.85 in NW 5.0 mph 12.0 mph 74% 0.00 in
18:44 72.8 °F 64.0 °F 29.86 in NW 4.0 mph 12.0 mph 74% 0.00 in
18:49 72.6 °F 63.8 °F 29.86 in NW 4.0 mph 9.0 mph 74% 0.00 in
18:54 72.5 °F 63.7 °F 29.86 in NW 3.0 mph 9.0 mph 74% 0.00 in
18:59 72.2 °F 62.7 °F 29.86 in NW 5.0 mph 11.0 mph 72% 0.00 in
19:04 72.2 °F 62.7 °F 29.86 in NNE 2.0 mph 11.0 mph 72% 0.00 in
19:09 72.0 °F 62.1 °F 29.87 in NW 5.0 mph 12.0 mph 71% 0.00 in
19:14 71.9 °F 62.4 °F 29.87 in NW 4.0 mph 12.0 mph 72% 0.00 in
19:19 71.6 °F 62.1 °F 29.87 in Calm   8.0 mph 72% 0.00 in
19:24 71.4 °F 61.9 °F 29.87 in NW 4.0 mph 8.0 mph 72% 0.00 in
19:29 71.2 °F 60.9 °F 29.87 in North 1.0 mph 8.0 mph 70% 0.00 in
19:34 71.0 °F 60.3 °F 29.88 in NW 4.0 mph 11.0 mph 69% 0.00 in
19:39 70.7 °F 59.6 °F 29.88 in NNW 3.0 mph 11.0 mph 68% 0.00 in
19:44 70.4 °F 59.3 °F 29.88 in NNW 3.0 mph 8.0 mph 68% 0.00 in
19:49 70.1 °F 59.0 °F 29.88 in NW 3.0 mph 8.0 mph 68% 0.00 in
19:54 69.8 °F 59.2 °F 29.88 in NNW 2.0 mph 6.0 mph 69% 0.00 in
19:59 69.5 °F 58.9 °F 29.89 in NW 2.0 mph 8.0 mph 69% 0.00 in
20:04 69.3 °F 59.1 °F 29.89 in NW 3.0 mph 8.0 mph 70% 0.00 in
20:09 69.2 °F 59.0 °F 29.89 in NW 6.0 mph 9.0 mph 70% 0.00 in
20:14 69.0 °F 58.4 °F 29.89 in North 7.0 mph 9.0 mph 69% 0.00 in
20:19 68.8 °F 58.2 °F 29.90 in NNW 3.0 mph 12.0 mph 69% 0.00 in
20:24 68.6 °F 57.6 °F 29.90 in NNW 3.0 mph 13.0 mph 68% 0.00 in
20:29 68.5 °F 57.5 °F 29.90 in West 8.0 mph 11.0 mph 68% 0.00 in
20:34 68.3 °F 57.3 °F 29.90 in NW 5.0 mph 11.0 mph 68% 0.00 in
20:39 68.3 °F 57.3 °F 29.91 in NNW 4.0 mph 11.0 mph 68% 0.00 in
20:44 68.1 °F 56.7 °F 29.91 in NW 4.0 mph 11.0 mph 67% 0.00 in
20:49 67.9 °F 56.5 °F 29.91 in NW 3.0 mph 11.0 mph 67% 0.00 in
20:54 67.5 °F 56.2 °F 29.91 in NNW 3.0 mph 8.0 mph 67% 0.00 in
20:59 67.3 °F 56.0 °F 29.91 in NW 7.0 mph 9.0 mph 67% 0.00 in
21:04 67.1 °F 55.4 °F 29.91 in NNW 6.0 mph 10.0 mph 66% 0.00 in
21:09 66.9 °F 55.2 °F 29.91 in NW 3.0 mph 10.0 mph 66% 0.00 in
21:14 66.7 °F 55.0 °F 29.91 in NNW 3.0 mph 10.0 mph 66% 0.00 in
21:19 66.5 °F 55.2 °F 29.91 in NW 1.0 mph 10.0 mph 67% 0.00 in
21:24 66.4 °F 55.1 °F 29.92 in NNW 8.0 mph 11.0 mph 67% 0.00 in
21:29 66.3 °F 55.0 °F 29.92 in NW 4.0 mph 9.0 mph 67% 0.00 in
21:34 66.1 °F 54.8 °F 29.93 in NNW 5.0 mph 9.0 mph 67% 0.00 in
21:39 65.8 °F 54.5 °F 29.93 in NW 3.0 mph 9.0 mph 67% 0.00 in
21:44 65.6 °F 54.3 °F 29.92 in NW 2.0 mph 6.0 mph 67% 0.00 in
21:49 65.5 °F 54.7 °F 29.92 in NW 2.0 mph 6.0 mph 68% 0.00 in
21:54 65.3 °F 54.1 °F 29.93 in NW 2.0 mph 7.0 mph 67% 0.00 in
21:59 65.2 °F 54.0 °F 29.93 in Calm   8.0 mph 67% 0.00 in
22:04 64.8 °F 54.0 °F 29.93 in NW 2.0 mph 8.0 mph 68% 0.00 in
22:09 64.7 °F 53.5 °F 29.93 in NW 2.0 mph 10.0 mph 67% 0.00 in
22:14 64.7 °F 53.5 °F 29.93 in NW 3.0 mph 10.0 mph 67% 0.00 in
22:19 64.5 °F 53.3 °F 29.93 in NW 3.0 mph 9.0 mph 67% 0.00 in
22:24 64.4 °F 53.6 °F 29.94 in NW 3.0 mph 9.0 mph 68% 0.00 in
22:29 64.3 °F 53.5 °F 29.94 in NW 5.0 mph 7.0 mph 68% 0.00 in
22:34 64.2 °F 53.4 °F 29.93 in NW 3.0 mph 9.0 mph 68% 0.00 in
22:39 64.1 °F 53.3 °F 29.94 in WNW 6.0 mph 10.0 mph 68% 0.00 in
22:44 64.1 °F 53.3 °F 29.94 in NW 3.0 mph 12.0 mph 68% 0.00 in
22:49 64.0 °F 53.2 °F 29.94 in NNW 2.0 mph 10.0 mph 68% 0.00 in
22:54 63.8 °F 53.0 °F 29.94 in NE 2.0 mph 9.0 mph 68% 0.00 in
22:59 63.6 °F 53.2 °F 29.94 in NNW 1.0 mph 6.0 mph 69% 0.00 in
23:04 63.3 °F 53.0 °F 29.94 in NNW 2.0 mph 8.0 mph 69% 0.00 in
23:09 63.1 °F 52.8 °F 29.95 in NNW 3.0 mph 10.0 mph 69% 0.00 in
23:14 62.9 °F 53.0 °F 29.94 in NW 3.0 mph 10.0 mph 70% 0.00 in
23:19 62.7 °F 52.4 °F 29.94 in NW 3.0 mph 6.0 mph 69% 0.00 in
23:24 62.6 °F 52.3 °F 29.94 in NW 3.0 mph 8.0 mph 69% 0.00 in
23:29 62.5 °F 51.4 °F 29.94 in NW 3.0 mph 10.0 mph 67% 0.00 in
23:34 62.4 °F 51.3 °F 29.94 in NW 4.0 mph 10.0 mph 67% 0.00 in
23:39 62.3 °F 51.2 °F 29.94 in NW 3.0 mph 8.0 mph 67% 0.00 in
23:44 62.1 °F 51.0 °F 29.94 in NW 1.0 mph 9.0 mph 67% 0.00 in
23:49 61.9 °F 50.8 °F 29.94 in NW 2.0 mph 4.0 mph 67% 0.00 in
23:54 61.8 °F 51.1 °F 29.94 in NW 5.0 mph 8.0 mph 68% 0.00 in
23:59 61.8 °F 51.1 °F 29.94 in Calm   8.0 mph 68% 0.00 in
Buffalo, New York, USA
Compliments of Weather Underground - 2.5 mb